Погода в Таборе

Танзания     5°01′50″S   32°49′11″E
темп.,
°C
ветер,
м/с
пор.,
м/с
влажн.,
%
обл.,
%
осадки,
мм/ч
давл.,
гПа
погр.,
м
7 мая, пт
пт700:00+18юв239059 0.0 101450
03:00+19юв2687100 0.0 1013176
06:00+16юв249059 0.0 1015100
09:00+20вюв367767 0.0 1016380
12:00+25юв345745 0.0 10141308
15:00+27ююв3349100 0.0 10102056
18:00+23юв2469100 0.0 101083
21:00+22вюв1168100 0.0 101320
8 мая, сб
сб800:00+21в1171100 0.0 101322
03:00+21юв1173100 0.0 101212
06:00+20вюв2375100 0.0 101385
09:00+21вюв2371100 0.0 1015341
12:00+25юв336086 0.0 10141152
15:00+25юв2360100 0.3 10111307
18:00+23ююз117589 0.4 101127
21:00+20ююз1183100 0.6 101411
9 мая, вс
вс900:00+18ю1192100 1.3 101412
03:00+17ссз0094100 2.4 101311
06:00+17ю119467 0.1 101411
09:00+20ю238338 0.6 1016234
12:00+24ю226925 3.1 1014989
15:00+24ссв117284 7.1 1012831
18:00+20ссв259299 4.6 1013146
21:00+18ссв2495100 5.9 1015156
10 мая, пн
пн1000:00+19ссв1294100 0.6 101642
03:00+18с2396100 1.9 101492
06:00+17ссв1297100 1.4 101658
09:00+20зюз1288100 1.6 1017392
12:00+23юз337037 1.4 10151159
15:00+24ююз236799 3.1 1013953
18:00+22зсз117999 1.3 101322
21:00+18зсз1188100 1.3 101611
11 мая, вт
вт1100:00+18юз1188100 0.0 101612
03:00+17ююз229478 0.0 101544
06:00+15ю2287100 0.0 101620
09:00+19ююв247733 0.0 1018284
12:00+24ююв236248 0.0 10161209
15:00+25ююв235692 0.6 10131704
18:00+21ююв2677100 0.3 1014145
21:00+19в2481100 0.5 101687